Meteo Giornale » Osservazioni meteo Australia » Mackay Mo
ore: 04:00 - Osservazioni Meteo Mackay Mo
Lat. 21° 7' S Lon. 149° 12' E Alt. 30 metri s.l.m.
20 °C
Sereno
Temp. 24 Ore
20 °C
25 °C
Est/Sud-Est
27.8 Km/h
Dew point 13 °C
Umidità 64 %
Visibilità 10 Km
Il sole sorge alle ore 06:12
Il sole tramonta alle ore 17:54
| Data e Ora | Cielo e Fenomeni | T °C | DP °C | Um. % | Pres. hPa | Vis. km | Vento km/h | |
|---|---|---|---|---|---|---|---|---|
| Oggi h: 04:00 | Sereno | 20 | 13 | 64 | 1023 | 10 | E/SE 27.8 | |
| Oggi h: 03:30 | Sereno | 20 | 14 | 68 | 1024 | 10 | E/SE 31.5 | |
| Oggi h: 03:00 | Sereno | 20 | 13 | 64 | 1024 | 10 | E/SE 31.5 | |
| Oggi h: 02:30 | Sereno | 20 | 13 | 64 | 1024 | 10 | SE 31.5 | |
| Oggi h: 02:00 | Poco Nuvoloso | 20 | 14 | 68 | 1024 | 10 | E/SE 33.3 | |
| Oggi h: 01:30 | Sereno | 20 | 14 | 68 | 1025 | 10 | E/SE 33.3 | |
| Oggi h: 01:00 | Sereno | 20 | 14 | 68 | 1025 | 10 | E/SE 31.5 | |
| Oggi h: 00:30 | Nuvoloso | 20 | 14 | 68 | 1025 | 10 | E/SE 29.6 | |
| Oggi h: 00:00 | Coperto | 21 | 15 | 68 | 1025 | 10 | E/SE 33.3 | |
| Ieri h: 23:30 | Molto Nuvoloso | 21 | 14 | 64 | 1025 | 10 | E/SE 33.3 | |
| Ieri h: 23:00 | Molto Nuvoloso | 21 | 13 | 60 | 1025 | 10 | E/SE 33.3 | |
| Ieri h: 22:30 | Molto Nuvoloso | 21 | 15 | 68 | 1026 | 10 | E/SE 31.5 | |
| Ieri h: 22:00 | Coperto | 21 | 15 | 68 | 1026 | 10 | E/SE 27.8 | |
| Ieri h: 21:30 | Coperto | 21 | 15 | 68 | 1026 | 10 | E/SE 31.5 | |
| Ieri h: 21:00 | Coperto | 21 | 14 | 64 | 1026 | 10 | E/SE 27.8 | |
| Ieri h: 20:30 | Coperto | 21 | 14 | 64 | 1026 | 10 | E/SE 31.5 | |
| Ieri h: 20:00 | Nuvoloso | 21 | 14 | 64 | 1025 | 10 | E/SE 35.2 | |
| Ieri h: 19:30 | Coperto | 21 | 15 | 68 | 1025 | 10 | E/SE 31.5 | |
| Ieri h: 19:00 | Molto Nuvoloso | 21 | 15 | 68 | 1025 | 10 | E/SE 27.8 | |
| Ieri h: 18:30 | Nuvoloso | 21 | 15 | 68 | 1025 | 10 | E/SE 24 | |
| Ieri h: 18:00 | Sereno | 21 | 15 | 68 | 1024 | 10 | E/SE 27.8 | |
| Ieri h: 17:30 | Sereno | 21 | 15 | 68 | 1024 | 10 | E/SE 29.6 | |
| Ieri h: 17:00 | Sereno | 22 | 15 | 64 | 1024 | 10 | E/SE 27.8 | |
| Ieri h: 16:30 | Poco Nuvoloso | 23 | 14 | 56 | 1024 | 10 | SE 27.8 | |
| Ieri h: 16:00 | Coperto | 23 | 13 | 53 | 1024 | 10 | SE 29.6 | |
| Ieri h: 15:30 | Coperto | 23 | 14 | 56 | 1024 | 10 | E/SE 29.6 | |
| Ieri h: 15:00 | Molto Nuvoloso | 24 | 14 | 53 | 1024 | 10 | E/SE 27.8 | |
| Ieri h: 14:30 | Molto Nuvoloso | 24 | 15 | 57 | 1024 | 10 | SE 31.5 | |
| Ieri h: 14:00 | Coperto | 24 | 15 | 57 | 1024 | 10 | SE 35.2 | |
| Ieri h: 13:30 | Molto Nuvoloso | 25 | 14 | 50 | 1024 | 10 | E/SE 35.2 | |
| Ieri h: 13:00 | Nuvoloso | 25 | 14 | 50 | 1024 | 10 | SE 35.2 | |
| Ieri h: 12:30 | Nuvoloso | 25 | 15 | 53 | 1025 | 10 | E/SE 35.2 | |
| Ieri h: 12:00 | Sereno | 25 | 16 | 57 | 1025 | 10 | SE 33.3 | |
| Ieri h: 11:30 | Poco Nuvoloso | 24 | 16 | 60 | 1025 | 10 | SE 35.2 | |
| Ieri h: 11:00 | Poco Nuvoloso | 24 | 17 | 64 | 1026 | 10 | SE 35.2 | |
| Ieri h: 10:30 | Nuvoloso | 24 | 15 | 57 | 1026 | 10 | SE 37 | |
| Ieri h: 10:00 | Molto Nuvoloso | 24 | 15 | 57 | 1026 | 10 | E/SE 35.2 | |
| Ieri h: 09:30 | Molto Nuvoloso | 23 | 14 | 56 | 1026 | 10 | SE 35.2 | |
| Ieri h: 09:00 | Molto Nuvoloso | 24 | 15 | 57 | 1026 | 10 | SE 33.3 | |
| Ieri h: 08:30 | Nuvoloso | 22 | 17 | 73 | 1026 | 10 | S/SE 20.3 | |
| Ieri h: 08:00 | Molto Nuvoloso | 22 | 16 | 68 | 1026 | 10 | S/SE 22.2 | |
| Ieri h: 07:30 | Coperto | 21 | 15 | 68 | 1025 | 10 | SE 27.8 | |
| Ieri h: 07:00 | Molto Nuvoloso | 20 | 15 | 72 | 1025 | 10 | S 22.2 | |
| Ieri h: 06:30 | Coperto | 20 | 15 | 72 | 1024 | 10 | SE 33.3 | |
| Ieri h: 06:00 | Coperto | 20 | 15 | 72 | 1024 | 10 | SE 31.5 | |
| Ieri h: 05:30 | Coperto | 20 | 14 | 68 | 1024 | 10 | E/SE 29.6 | |
| Ieri h: 05:00 | Molto Nuvoloso | 20 | 16 | 77 | 1024 | 10 | SE 33.3 | |



